Location: Rioux
(40.7500°S, 175.7500°E)
Time: 11:14:44
(UTC+00:00)

Radarsat - Pass Details

Date: 12 June 2024
Orbit: 785 x 787 km, 98.6° (Epoch: 21 July)

Event Time Altitude Azimuth Distance (km) Brightness Sun altitude
Rises 17:49:14 0° 14° (NNE) 3,269 8.1 -20.0°
Reaches altitude 10° 17:51:32 10° 13° (NNE) 2,348 7.3 -19.6°
Maximum altitude 17:56:44 85° 283° (WNW) 804 4.5 -18.6°
Drops below altitude 10° 18:02:01 10° 194° (SSW) 2,380 6.8 -17.6°
Enters shadow 18:02:52 - 194° (SSW) 2,719 7.1 -17.5°
